Regional Weather Roundup
Issued by NWS

Home | Current Version | Previous Version | Graphics & Text | Print | Product List | Glossary On
Versions: 1 2 3 4 5 6 7 8 9 10 11 12 13 14 15 16 17 18 19 20 21 22 23 24 25 26 27 28 29 30 31 32 33 34 35 36 37 38 39 40 41 42 43 44 45 46 47 48 49 50
000
ASUS45 KTFX 170010
RWRMT
MONTANA REGIONAL WEATHER ROUNDUP
NATIONAL WEATHER SERVICE GREAT FALLS MT
600 PM MDT MON OCT 16 2017

NOTE: "FAIR" INDICATES FEW OR NO CLOUDS BELOW 12000 FEET WITH NO
SIGNIFICANT WEATHER AND/OR OBSTRUCTIONS TO VISIBILITY.

MTZ001>007-043-170100-
WEST OF THE DIVIDE

CITY           SKY/WX    TMP DP  RH WIND       PRES   REMARKS
KALISPELL      CLEAR     61  33  35 SE7       30.08S
MISSOULA       CLEAR     61  30  31 MISG      30.15F
BUTTE          CLEAR     62  18  18 SW8       30.21F
MULLAN PASS    CLEAR     46  20  35 SW8       30.22F
ANACONDA         N/A     63  19  19 S12G17    30.19S
DEER LODGE       N/A     61  25  25 W5        30.19S
EUREKA           N/A     64  27  24 MISG      30.06S
HAMILTON         N/A     70  25  18 CALM      30.17S
LIBBY            N/A     64  28  25 CALM      30.08S
$$

MTZ008-052>055-170100-
SOUTHWEST MONTANA

CITY           SKY/WX    TMP DP  RH WIND       PRES   REMARKS
BOZEMAN        CLEAR     63  31  30 NE6       30.16F
DILLON         CLEAR     61  23  23 SW12      30.20F
W YELLOWSTONE  CLEAR     50  12  22 SW13G25   30.35R
ENNIS          CLEAR     61  21  21 S16G22    30.26S
THREE FORKS      N/A     68  21  16 W7        30.13S
TWIN BRIDGES     N/A     66  22  19 CALM      30.16F
$$

MTZ009-010-012-014-046-048-049-054-170100-
EAST SLOPES AND CENTRAL MONTANA

CITY           SKY/WX    TMP DP  RH WIND       PRES   REMARKS
CUT BANK       PTCLDY    58  23  26 SW30G38   29.99F
GREAT FALLS    CLEAR     63  18  17 SW17G32   30.04F
MALMSTROM AFB  CLEAR     65  20  17 SW23G31   30.04S
HELENA         CLEAR     68  22  17 W8        30.12F
CHOTEAU          N/A     63  19  19 SW12G17   30.05S
$$

MTZ011-013-016-021-045-047-050-051-170100-
NORTH CENTRAL MONTANA

CITY           SKY/WX    TMP DP  RH WIND       PRES   REMARKS
HAVRE          CLEAR     66  30  26 W20       29.92S
LEWISTOWN      CLEAR     61  24  24 W8        30.06S
N BAR RANCH      N/A     63  16  16 W9        30.10R
CHINOOK          N/A     70  28  21 W22G29    29.89F
$$

MTZ017>020-022>027-061-062-170100-
NORTHEAST MONTANA

CITY           SKY/WX    TMP DP  RH WIND       PRES   REMARKS
GLASGOW        CLEAR     64  32  30 SW5       29.93F
JORDAN           N/A     65  30  27 W5        29.98S
SIDNEY         CLEAR     59  32  36 W7        29.96S
WOLF POINT     CLEAR     65  30  27 W9        29.94F
MALTA          CLEAR     66  32  28 W12       29.91F
PLENTYWOOD       N/A     63  30  29 CALM      29.92S
SCOBEY           N/A     59  28  30 W3        29.92F
$$

MTZ028>42-056>058-170100-
SOUTHCENTRAL AND SOUTHEAST MONTANA

CITY           SKY/WX    TMP DP  RH WIND       PRES   REMARKS
BAKER          CLEAR     62  30  29 W12       30.04R
BILLINGS       CLEAR     69  21  16 SW14      30.08S
LIVINGSTON     CLEAR     64  23  21 W12       30.14F
MILES CITY     CLEAR     66  30  26 W5        30.01S
BIG TIMBER     CLEAR     64  16  15 W12       30.16R
FORSYTH          N/A     72  25  17 CALM      30.01S
LAUREL           N/A     66  25  20 SW8       30.09F
$$

REGIONAL REPORTS...DAKOTAS

CITY           SKY/WX    TMP DP  RH WIND       PRES   REMARKS
WILLISTON      CLEAR     61  32  33 W6        29.94S
MINOT          CLOUDY    59  35  40 W8        29.91R
DICKINSON      CLEAR     57  31  37 W9        29.98R
BEACH            N/A     59  28  31 NW10      30.04R
CROSBY           N/A     54  32  43 S5        29.91F
TIOGA            N/A     55  32  41 SW9       29.95R
WATFORD CITY     N/A     59  32  36 W8        29.95S
BISMARCK       CLEAR     63  32  31 NW3       29.95R
GRAND FORKS    PTCLDY    59  37  44 W6        29.85R
FARGO          CLEAR     59  39  47 SW3       29.87R
BUFFALO SD       N/A     61  27  27 W12       29.99R
RAPID CITY     CLEAR     65  28  24 N9        30.07R
$$

REGIONAL REPORTS...WYOMING/IDAHO/WASHINGTON

CITY           SKY/WX    TMP DP  RH WIND       PRES   REMARKS
GILLETTE       CLEAR     61  23  23 NW8       30.13S
SHERIDAN       CLEAR     67  21  17 SW3       30.11S
BUFFALO WY     CLEAR     63  17  17 N5        30.18R
CODY           CLEAR     66  18  15 VRB5      30.19S
YELLOWSTONE LA   N/A     46  13  26 VRB5      30.40R
IDAHO FALLS    CLEAR     56  27  32 W5        30.33S
SALMON         CLEAR     58  31  35 SW5       30.23F
BOISE          CLEAR     64  28  25 CALM      30.26F
SPOKANE        PTCLDY    62  30  29 S12       30.14S
$$

REGIONAL REPORTS...ALBERTA

CITY           SKY/WX    TMP DP  RH WIND       PRES   REMARKS
EDMONTON       CLOUDY    52  36  54 E2        29.64F
CALGARY        PTCLDY    64  32  29 W6        29.69F
LETHBRIDGE     MOCLDY    63  28  27 SW21G29   29.85S
MEDICINE HAT   PTCLDY    64  32  29 SW20G30   29.78F
$$

REGIONAL REPORTS...SASKATCHEWAN

CITY           SKY/WX    TMP DP  RH WIND       PRES   REMARKS
SWIFT CURRENT  CLEAR     55  30  38 SW9       29.81
REGINA         PTCLDY    55  30  38 SW5       29.86R
SASKATOON      PTCLDY    54  30  40 SW9       29.77F
$$



USA.gov is the U.S. government's official web portal to all federal, state and local government web resources and services.